This demonstration page uses our WeatherBlox Daily Observations layout. Learn more.

Left ArrowRight Arrow

Hourly Observations for March 2, 2020

Temp ( °F °C ) Dew Point ( °F °C ) Humidity (%) Winds ( mph kmh ) Pressure ( in mb ) Visibility ( mi km ) Precip ( " mm )
12:53 am 00:53 Partly Cloudy 58 14.4 36 2.2 44 44 SSW 8 13 29.92 1013 10 16.0934 N/A
1:53 am 01:53 Mostly Cloudy 57 13.9 36 2.2 45 45 SW 10 17 29.9 1013 10 16.0934 N/A
2:53 am 02:53 Cloudy 56 13.3 36 2.2 47 47 SSW 9 15 29.87 1012 10 16.0934 N/A
3:53 am 03:53 Mostly Cloudy 55 12.8 36 2.2 49 49 SSW 9 15 29.85 1011 10 16.0934 N/A
4:53 am 04:53 Cloudy 55 12.8 38 3.3 53 53 SW 7 11 29.85 1011 10 16.0934 N/A
5:53 am 05:53 Cloudy 54 12.2 38 3.3 55 55 SSW 6 9 29.84 1010 10 16.0934 N/A
6:53 am 06:53 Cloudy with Light Rain 53 11.7 40 4.4 61 61 SSW 7 11 29.83 1010 10 16.0934 0.001 0.001
7:11 am 07:11 Cloudy with Light Rain 52 11.1 43 6.1 72 72 SSW 5 7 29.84 1010 10 16.0934 0.001 0.001
7:53 am 07:53 Cloudy with Light Rain 50 10 45 7.2 83 83 VRB 7 11 29.82 1010 7 11.26538 0.02 0.508
8:53 am 08:53 Cloudy 50 10 46 7.8 86 86 SSW 8 13 29.82 1010 10 16.0934 0.02 0.508
9:14 am 09:14 Cloudy 51 10.6 46 7.8 83 83 SSW 9 15 29.83 1010 10 16.0934 N/A
9:53 am 09:53 Cloudy with Light Rain 50 10 47 8.3 89 89 SSW 5 7 29.81 1009 8 12.87472 0.001 0.001
10:53 am 10:53 Cloudy 52 11.1 47 8.3 83 83 VRB 6 9 29.8 1009 10 16.0934 0.001 0.001
11:53 am 11:53 Cloudy with Light Rain 50 10 48 8.9 93 93 SW 7 11 29.8 1009 2.5 4.02335 0.01 0.254
12:16 pm 12:16 Cloudy with Light Rain 50 10 48 8.9 93 93 SW 6 9 29.81 1009 1.75 2.816345 0.001 0.001
12:38 pm 12:38 Cloudy with Light Rain 50 10 49 9.4 96 96 VRB 5 7 29.8 1009 2 3.21868 0.01 0.254
12:51 pm 12:51 Cloudy with Light Rain 50 10 48 9 94 94 SW 7 11 29.79 1009 3 4.82802 0.01 0.254
12:53 pm 12:53 Cloudy with Light Rain 51 10.6 49 9.4 92 92 SW 3 6 29.78 1008 3 4.82802 0.01 0.254
1:15 pm 13:15 Cloudy 51 10.6 49 9.4 92 92 SW 3 6 29.77 1008 10 16.0934 0.001 0.001
1:53 pm 13:53 Cloudy 52 11.1 49 9.4 89 89 SW 5 7 29.75 1007 10 16.0934 0.001 0.001
2:53 pm 14:53 Cloudy 52 11.1 49 9.4 89 89 SW 6 9 29.74 1007 10 16.0934 N/A
3:02 pm 15:02 Cloudy 52 11.1 49 9.4 89 89 VRB 5 7 29.75 1007 10 16.0934 N/A
3:32 pm 15:32 Cloudy 53 11.7 49 9.4 86 86 WSW 8 13 29.74 1007 10 16.0934 N/A
3:49 pm 15:49 Cloudy 54 12 48 9 82 82 SW 7 11 29.73 1007 10 16.0934 N/A
3:53 pm 15:53 Cloudy 53 11.7 49 9.4 86 86 SW 8 13 29.73 1007 10 16.0934 N/A
4:33 pm 16:33 Cloudy 53 11.7 49 9.4 86 86 WSW 6 9 29.75 1008 10 16.0934 N/A
4:53 pm 16:53 Cloudy 53 11.7 49 9.4 86 86 WSW 8 13 29.75 1007 7 11.26538 N/A
5:22 pm 17:22 Cloudy 52 11.1 50 10 93 93 WSW 5 7 29.77 1008 10 16.0934 N/A
5:53 pm 17:53 Cloudy with Light Rain 52 11.1 50 10 93 93 WSW 6 9 29.77 1008 4 6.43736 0.001 0.001
6:02 pm 18:02 Cloudy with Light Rain 52 11.1 50 10 93 93 WSW 6 9 29.79 1009 2.5 4.02335 0.01 0.254
6:38 pm 18:38 Cloudy with Mist and Fog 52 11.1 50 10 93 93 SSW 3 6 29.78 1008 4 6.43736 0.01 0.254
6:53 pm 18:53 Cloudy with Mist and Fog 51 10.6 50 10 96 96 N N/A 29.78 1008 3 4.82802 0.01 0.254
7:02 pm 19:02 Cloudy with Mist and Fog 51 10.6 50 10 96 96 N N/A 29.78 1008 3 4.82802 N/A
7:29 pm 19:29 Cloudy with Mist and Fog 51 10.6 50 10 96 96 N N/A 29.78 1008 1.75 2.816345 N/A
7:37 pm 19:37 Cloudy with Mist and Fog 50 10 50 10 100 100 N N/A 29.78 1008 1 1.60934 N/A
7:48 pm 19:48 Cloudy with Mist and Fog 50 10 50 10 100 100 N N/A 29.78 1008 2 3.21868 N/A
7:53 pm 19:53 Cloudy with Mist and Fog 51 10.6 50 10 96 96 N N/A 29.78 1008 3 4.82802 N/A
8:01 pm 20:01 Cloudy with Mist and Fog 51 10.6 50 10 96 96 N N/A 29.78 1008 4 6.43736 N/A
8:42 pm 20:42 Cloudy 52 11.1 50 10 93 93 SSW 3 6 29.78 1008 8 12.87472 N/A
8:53 pm 20:53 Cloudy 52 11.1 50 10 93 93 SW 3 6 29.78 1008 8 12.87472 N/A
9:04 pm 21:04 Cloudy 52 11.1 50 10 93 93 SSW 3 6 29.78 1008 8 12.87472 N/A
9:44 pm 21:44 Cloudy 52 11.1 50 10 93 93 S 3 6 29.78 1008 8 12.87472 N/A
9:53 pm 21:53 Cloudy 52 11.1 50 10 93 93 VRB 6 9 29.77 1008 7 11.26538 N/A
10:07 pm 22:07 Cloudy 53 11.7 50 10 89 89 S 3 6 29.76 1008 8 12.87472 N/A
10:16 pm 22:16 Cloudy 53 11.7 50 10 89 89 N N/A 29.75 1008 9 14.48406 N/A
10:53 pm 22:53 Cloudy with Light Rain 51 10.6 50 10 96 96 N N/A 29.75 1007 4 6.43736 0.01 0.254
11:22 pm 23:22 Cloudy with Light Rain 51 10.6 50 10 96 96 N N/A 29.74 1007 4 6.43736 0.001 0.001
11:44 pm 23:44 Cloudy with Rain 52 11.1 50 10 93 93 N N/A 29.73 1007 2 3.21868 0.03 0.762
11:48 pm 23:48 Cloudy with Heavy Rain 52 11 50 10 94 94 N N/A 29.73 1007 1.5 2.41401 0.09 2.286
11:53 pm 23:53 Cloudy with Rain 51 10.6 50 10 96 96 ENE 5 7 29.71 1006 1.5 2.41401 0.1 2.54
11:56 pm 23:56 Cloudy with Light Rain 51 10.6 50 10 96 96 ENE 5 7 29.72 1006 2 3.21868 0.001 0.001

Powered by AerisWeather